This demonstration page uses our WeatherBlox Daily Observations layout. Learn more.

Left ArrowRight Arrow

Hourly Observations for May 7, 2021

Temp ( °F °C ) Dew Point ( °F °C ) Humidity (%) Winds ( mph kmh ) Pressure ( in mb ) Visibility ( mi km ) Precip ( " mm )
12:53 am 00:53 Clear 53 11.7 29 -1.7 40 40 E 20 31 29.93 1014 10 16 0.00 0.00
1:53 am 01:53 Clear 51 10.6 28 -2.2 41 41 E 22 35 29.91 1013 10 16 0.00 0.00
2:53 am 02:53 Clear 50 10 29 -1.7 44 44 ENE 18 30 29.88 1012 10 16 0.00 0.00
3:53 am 03:53 Clear 46 7.8 29 -1.7 51 51 ENE 18 30 29.87 1012 10 16 0.00 0.00
4:53 am 04:53 Clear 46 7.8 29 -1.7 51 51 ENE 20 31 29.86 1011 10 16 0.00 0.00
5:53 am 05:53 Sunny 44 6.7 28 -2.2 53 53 E 22 35 29.86 1011 10 16 0.00 0.00
6:53 am 06:53 Sunny 47 8.3 30 -1.1 52 52 ENE 23 37 29.83 1010 10 16 0.00 0.00
7:53 am 07:53 Sunny 49 9.4 30 -1.1 48 48 ENE 21 33 29.83 1010 10 16 0.00 0.00
8:53 am 08:53 Sunny 51 10.6 31 -0.6 46 46 ENE 21 33 29.81 1010 10 16 0.00 0.00
9:53 am 09:53 Cloudy 53 11.7 32 0 45 45 E 21 33 29.81 1009 10 16 0.00 0.00
10:53 am 10:53 Partly Cloudy 60 15.6 35 1.7 39 39 E 12 19 29.80 1009 10 16 0.00 0.00
11:53 am 11:53 Partly Cloudy 62 16.7 36 2.2 38 38 Calm 29.78 1009 10 16 0.00 0.00
12:53 pm 12:53 Partly Cloudy 67 19.4 35 1.7 31 31 E 14 22 29.76 1008 10 16 0.00 0.00
1:53 pm 13:53 Mostly Cloudy 70 21.1 35 1.7 28 28 NW 5 7 29.74 1007 10 16 0.00 0.00
2:53 pm 14:53 Mostly Cloudy 67 19.4 35 1.7 31 31 WNW 16 26 29.76 1008 10 16 0.00 0.00
3:53 pm 15:53 Mostly Cloudy 64 17.8 39 3.9 40 40 WNW 18 30 29.76 1008 10 16 0.00 0.00
4:53 pm 16:53 Cloudy 60 15.6 41 5 50 50 NW 15 24 29.76 1008 10 16 0.00 0.00
5:53 pm 17:53 Cloudy with Light Rain 54 12.2 46 7.8 75 75 WNW 13 20 29.77 1008 10 16 0.00 0.00
6:53 pm 18:53 Cloudy with Light Rain 52 11.1 48 8.9 86 86 W 9 15 29.79 1009 10 16 0.01 0.25
7:39 pm 19:39 Cloudy with Rain 50 10 48 8.9 93 93 W 6 9 29.80 1009 3 5 0.05 1.27
7:53 pm 19:53 Cloudy with Light Rain 51 10.6 49 9.4 92 92 W 7 11 29.82 1010 5 8 0.06 1.52
8:36 pm 20:36 Cloudy with Light Rain 50 10 48 8.9 93 93 WNW 8 13 29.81 1009 9 14 0.07 1.78
8:53 pm 20:53 Cloudy with Light Rain 50 10 48 8.9 93 93 W 6 9 29.83 1010 10 16 0.08 2.03
9:03 pm 21:03 Cloudy with Light Rain 50 10 48 8.9 93 93 W 7 11 29.82 1010 10 16 0.00 0.00
9:11 pm 21:11 Cloudy with Light Rain 50 10 48 8.9 93 93 W 7 11 29.83 1010 10 16 0.01 0.25
9:53 pm 21:53 Cloudy with Rain 50 10 48 8.9 93 93 VRB 5 7 29.86 1011 5 8 0.07 1.78
10:53 pm 22:53 Cloudy with Light Rain 50 10 48 8.9 93 93 WSW 8 13 29.85 1011 7 11 0.08 2.03
11:03 pm 23:03 Cloudy with Light Rain 49 9.4 47 8.3 93 93 WSW 10 17 29.85 1011 7 11 0.02 0.51
11:14 pm 23:14 Cloudy with Light Rain 48 9 46 8 94 94 W 10 17 29.85 1011 7 11 0.00 0.00
11:53 pm 23:53 Cloudy with Light Rain 48 8.9 46 7.8 93 93 WSW 13 20 29.83 1010 10 16 0.07 1.78

Powered by AerisWeather